Location: Ariel
(45.9570°N, 122.5700°W)
Time: 00:56:49
(UTC-07:00)

Altair - Pass Details

Date: 20 July 2019
Orbit: 1501 x 1683 km, 47.2° (Epoch: 25 August)

Event Time Altitude Azimuth Distance (km) Brightness Sun altitude
Rises 17:54:07 0° 287° (WNW) 4,643 11.1 28.8°
Reaches altitude 10° 17:57:07 10° 286° (WNW) 3,670 11.0 28.3°
Maximum altitude 18:06:21 78° 203° (SSW) 1,571 8.1 26.7°
Drops below altitude 10° 18:15:53 10° 119° (ESE) 3,779 9.1 25.0°
Sets 18:19:00 0° 118° (ESE) 4,787 9.6 24.5°
